Regional Weather Roundup
Issued by NWS

Home | Current Version | Previous Version | Graphics & Text | Print | Product List | Glossary On
Versions: 1 2 3 4 5 6 7 8 9 10 11 12 13 14 15 16 17 18 19 20 21 22 23 24 25 26 27 28 29 30 31 32 33 34 35 36 37 38 39 40 41 42 43 44 45 46 47 48 49 50
000
ASUS43 KLOT 220912
RWRIL

ILLINOIS REGIONAL WEATHER ROUNDUP
NATIONAL WEATHER SERVICE CHICAGO/ROMEOVILLE IL
300 AM CST SUN JAN 22 2017

NOTE: "FAIR" INDICATES FEW OR NO CLOUDS BELOW 12,000 FEET WITH NO
SIGNIFICANT WEATHER AND/OR OBSTRUCTIONS TO VISIBILITY.

* THESE STATIONS ARE NOT UNDER NWS QUALITY CONTROL. THEY ALSO MAY NOT
  REPORT WEATHER SUCH AS PRECIPITATION OR FOG.

ILZ001-002-007-009-015-016-024-221000-
NORTHWEST ILLINOIS

CITY           SKY/WX    TMP DP  RH WIND       PRES   REMARKS
MOLINE         PTCLDY    32  29  88 CALM      29.58F FOG
STERLING*      FOG       30  30 100 CALM      29.59F VSB 1/4
SAVANNA*       FOG       29  29  99 CALM      29.59R VSB 1/4
$$

ILZ003-004-008-010-011-017-018-221000-
NORTH CENTRAL ILLINOIS

CITY           SKY/WX    TMP DP  RH WIND       PRES   REMARKS
ROCKFORD       FOG       33  32  96 NW5       29.60R VSB 1/4 WCI  29
FREEPORT*      FOG       32  32 100 CALM      29.60R VSB<1/4
ROCHELLE*      FOG       33  33 100 S5        29.59S VSB<1/4 WCI  29
DE KALB*       FOG       35  35  99 SW3       29.59S VSB 1/2
$$

ILZ005-006-012>014-019>023-221000-
NORTHEAST ILLINOIS

CITY           SKY/WX    TMP DP  RH WIND       PRES   REMARKS
CHICAGO-OHARE  FOG       41  41 100 CALM      29.57F VSB 1/4
CHICAGO-MIDWAY FOG       42  40  92 NW3       29.58F VSB 1
AURORA         FOG       33  31  92 NW3       29.58S VSB 1/4
LANSING*       FOG       37  37 100 CALM      29.60S VSB 1/4
JOLIET*        FOG       41  41 100 CALM      29.59S VSB<1/4
WAUKEGAN       FOG       38  38 100 CALM      29.57S VSB 1/4
DUPAGE AIRPORT FOG       34  32  92 CALM      29.57F VSB 1/4
KANKAKEE*      FOG       38  37  98 CALM      29.59S VSB 1/2
WHEELING       CLOUDY    41  40  96 CALM      29.59S FOG
MORRIS*        FOG       39  39  98 CALM      29.58F VSB 1
ROMEOVILLE*    FOG       38  38 100 CALM      29.59S VSB 1/4
NORTHERLY ISL    N/A     37  36  96 CALM        N/A
$$

LMZ740>746-221000-
SOUTHERN LAKE MICHIGAN

STATION/POSITION SKY/WX   TEMP    WIND        PRES    VSBY  WAVE
                          AIR SEA DIR/SP/G                  HT/PER
                          (F)     (DEG/KT/KT) (MB)    (MI)  (FT/S)
HARRISON CRIB              41      50/  2/  3   N/A
BURNHAM HARBOR             37      CALM  /  3   N/A
CALUMET HARBOR             35      80/  3/  3 1001.5F
BURNS HARBOR               35      60/  7/  8 1003.0S
MICHIGAN CITY              36      10/  9/ 10   N/A
$$

ILZ025>027-034>036-040-047-049-050-058-095>099-221000-
WEST-CENTRAL ILLINOIS

CITY           SKY/WX    TMP DP  RH WIND       PRES   REMARKS
QUINCY         CLOUDY    41  40  96 NE5       29.56R FOG
GALESBURG*     CLOUDY    34  34 100 N3        29.58R FOG
MACOMB*        DRZL/FOG  36  36 100 NE6       29.59S VSB 1/4 WCI  31
JACKSONVILLE*  CLEAR     42  41  97 N8        29.54S FOG
PITTSFIELD*    PTCLDY    43  42  97 N5        29.55S FOG
$$

ILZ028>032-037-038-041>044-048-051>054-059>061-221000-
CENTRAL ILLINOIS

CITY           SKY/WX    TMP DP  RH WIND       PRES   REMARKS
PONTIAC        DRZL/FOG  41  41 100 N8        29.59F VSB 1/2
BLOOMINGTON    FOG       38  37  97 N14       29.56F VSB 1/4 WCI  30
DECATUR        CLEAR     42  41  96 NE8       29.52F
PEORIA         FOG       41  41 100 NE8       29.57F VSB 1/2
LACON*         CLOUDY    38  38 100 CALM      29.58S FOG
LINCOLN*       MOCLDY    41  41 100 N9        29.55S FOG
SPRINGFIELD    CLEAR     45  42  89 N9        29.54S
TAYLORVILLE    CLEAR     45  41  87 NE7       29.51F
$$

ILZ033-039-045-046-055>057-062-063-221000-
EAST-CENTRAL ILLINOIS

CITY           SKY/WX    TMP DP  RH WIND       PRES   REMARKS
CHAMPAIGN      CLEAR     48  42  80 NE10      29.52F
RANTOUL*       CLEAR     46  45  95 NE8       29.54F
MATTOON        FOG       44  43  96 N8        29.51R VSB 1/2
PARIS*           N/A     43  43 100 NE3       29.53F FOG
$$

ILZ079-100>102-221000-
SOUTHWEST ILLINOIS

CITY           SKY/WX    TMP DP  RH WIND       PRES   REMARKS
ALTON          CLOUDY    44  42  94 CALM      29.50S
BELLEVILLE     CLOUDY    45  45 100 CALM      29.48S FOG
CAHOKIA*       PTCLDY    48  44  86 SE3       29.49R
SPARTA*        CLOUDY    46  46  97 CALM      29.49S FOG
$$

ILZ064>066-069>071-074>076-080>082-084>086-088>090-092>094-221000-
SOUTH-CENTRAL ILLINOIS

CITY           SKY/WX    TMP DP  RH WIND       PRES   REMARKS
CARBONDALE     CLOUDY    46  46 100 CALM      29.49R FOG
CAIRO*         CLOUDY    50  49  97 CALM      29.48R
EFFINGHAM*     CLEAR     51  51 100 CALM      29.52R
MARION         CLOUDY    50  50 100 CALM      29.49S
MT. VERNON     MOCLDY    42  41  96 CALM      29.50R
CENTRALIA*     PTCLDY    47  47  99 CALM      29.49S
SALEM*         PTCLDY    52  49  90 CALM      29.50S
METROPOLIS*    CLOUDY    51  48  89 CALM      29.49S
$$

ILZ067-068-072-073-078-083-087-091-221000-
SOUTHEAST ILLINOIS

CITY           SKY/WX    TMP DP  RH WIND       PRES   REMARKS
LAWRENCEVILLE  CLEAR     48  47  96 NE5       29.51R
FLORA*         PTCLDY    47  46  95 E3        29.51S
FAIRFIELD*     MOCLDY    52  49  89 CALM      29.49S
HARRISBURG*    CLOUDY    49  48  97 CALM      29.50S
ROBINSON*      CLEAR     43  43  99 CALM      29.53R
CARMI*         PTCLDY    46  45  97 S3        29.51R
$$

ABBREVIATIONS USED IN REMARKS
   TC - TEMPERATURE IN CELSIUS
  WCI - WIND CHILL INDEX
   HX - HEAT INDEX
  VSB - VISIBILITY
$$




USA.gov is the U.S. government's official web portal to all federal, state and local government web resources and services.